Regional Weather Roundup
Issued by NWS

Home | Current Version | Previous Version | Graphics & Text | Print | Product List | Glossary On
Versions: 1 2 3 4 5 6 7 8 9 10 11 12 13 14 15 16 17 18 19 20 21 22 23 24 25 26 27 28 29 30 31 32 33 34 35 36 37 38 39 40 41 42 43 44 45 46 47 48 49 50
000
ASUS43 KFSD 020602
RWRSD

WEATHER ROUNDUP FOR SOUTH DAKOTA
NATIONAL WEATHER SERVICE SIOUX FALLS SD
1200 AM CST MON MAR 02 2015

NOTE: "FAIR" INDICATES FEW OR NO CLOUDS BELOW 12,000 FEET WITH NO
SIGNIFICANT WEATHER AND/OR OBSTRUCTIONS TO VISIBILITY.


SDZ001>005-009-010-012>017-020700-
NORTHWEST AND NORTH CENTRAL SOUTH DAKOTA

CITY           SKY/WX    TMP DP  RH WIND       PRES   REMARKS
BUFFALO          N/A      9   4  80 SE7       30.15F WCI  -2
FAITH            N/A     15   6  67 SE12      30.31S WCI   2
MOBRIDGE       PTCLDY     9   6  88 SE5       30.35S WCI   1
$$

SDZ012>016-024>037-041>051-057-063-072>074-020700-
SOUTHWEST AND SOUTH CENTRAL SOUTH DAKOTA

CITY           SKY/WX    TMP DP  RH WIND       PRES   REMARKS
RAPID CTY ARPT PTCLDY    12   6  77 S5        30.26F WCI   4
PIERRE         PTCLDY    10   9  95 CALM      30.39F
CUSTER         PTCLDY     8   3  80 S3        30.12F
ELLSWORTH AFB  PTCLDY    13   6  74 S8        30.24F WCI   1
PHILIP         PTCLDY     3  -1  83 W6        30.36F WCI  -8
PINE RIDGE     MOCLDY    18   9  68 CALM      30.29F
WINNER         FAIR      20   4  50 SW5       30.39S WCI  13
$$

SDZ004>011-016>023-039-040-020700-
NORTHEAST SOUTH DAKOTA

CITY           SKY/WX    TMP DP  RH WIND       PRES   REMARKS
ABERDEEN       PTCLDY     1  -3  83 SW6       30.44R WCI -10
WATERTOWN      PTCLDY     5   2  87 W7        30.40R WCI  -7
SISSETON         N/A     11   5  77 W9        30.42R WCI  -2
$$

SDZ017-020-022-023-036>040-048>070-020700-
SOUTHEAST SOUTH DAKOTA

CITY           SKY/WX    TMP DP  RH WIND       PRES   REMARKS
SIOUX FALLS    CLEAR     12   8  84 N5        30.44R WCI   4
HURON          MOCLDY     7   3  84 CALM      30.45S
MITCHELL       PTCLDY    11   8  88 N5        30.46S WCI   3
YANKTON        MOCLDY    16   9  73 CALM      30.47F
$$

ABBREVIATIONS USED IN REMARKS
   TC - TEMPERATURE IN CELSIUS
  WCI - WIND CHILL INDEX
   HX - HEAT INDEX
  VSB - VISIBILITY



USA.gov is the U.S. government's official web portal to all federal, state and local government web resources and services.